Radiation Dose at Monitoring Post of Fukushima Daini Nuclear Power Station
Date,Time,MP-1(microSv/h),MP-2(microSv/h),MP-3(microSv/h),MP-4(microSv/h),MP-5(microSv/h),MP-6(microSv/h),MP-7(microSv/h),Wind Direction,Wind Velocity(m/s),Rain
2014/10/13,00:00,0.634,0.439,0.674,0.613,0.601,0.277,0.245,south-southwest,5.4,No
2014/10/13,00:10,0.633,0.440,0.676,0.612,0.601,0.278,0.247,south-southwest,5.9,No
2014/10/13,00:20,0.633,0.441,0.676,0.613,0.601,0.277,0.246,south-southwest,5.9,No
2014/10/13,00:30,0.636,0.441,0.673,0.612,0.601,0.277,0.245,south-southwest,6.1,No
2014/10/13,00:40,0.632,0.440,0.675,0.612,0.601,0.278,0.246,south-southwest,6.4,No
2014/10/13,00:50,0.632,0.440,0.674,0.613,0.600,0.278,0.245,south-southwest,6.5,No
2014/10/13,01:00,0.635,0.441,0.676,0.612,0.602,0.279,0.246,south-southwest,6.3,No
2014/10/13,01:10,0.634,0.440,0.676,0.612,0.602,0.276,0.247,south-southwest,6.2,No
2014/10/13,01:20,0.634,0.440,0.672,0.612,0.601,0.277,0.247,south-southwest,6.5,No
2014/10/13,01:30,0.634,0.441,0.675,0.613,0.600,0.278,0.246,south-southwest,7.3,No
2014/10/13,01:40,0.633,0.440,0.675,0.611,0.601,0.277,0.247,south-southwest,6.3,No
2014/10/13,01:50,0.633,0.440,0.675,0.611,0.603,0.278,0.246,south-southwest,5.9,No
2014/10/13,02:00,0.632,0.440,0.674,0.612,0.603,0.277,0.247,south,5.3,No
2014/10/13,02:10,0.634,0.441,0.674,0.612,0.601,0.278,0.245,south-southwest,6.2,No
2014/10/13,02:20,0.634,0.442,0.677,0.612,0.601,0.278,0.246,south,6.5,No
2014/10/13,02:30,0.634,0.442,0.675,0.612,0.601,0.278,0.247,south-southwest,6.5,No
2014/10/13,02:40,0.633,0.441,0.677,0.613,0.602,0.277,0.246,south-southwest,6.1,No
2014/10/13,02:50,0.633,0.441,0.675,0.613,0.601,0.278,0.247,south-southwest,5.6,No
2014/10/13,03:00,0.633,0.441,0.674,0.611,0.602,0.279,0.247,south-southwest,5.1,No
2014/10/13,03:10,0.633,0.441,0.674,0.612,0.602,0.278,0.247,south,5.3,No
2014/10/13,03:20,0.634,0.440,0.675,0.611,0.600,0.277,0.246,south,5.0,No
2014/10/13,03:30,0.633,0.440,0.676,0.611,0.602,0.277,0.246,south,4.9,No
2014/10/13,03:40,0.634,0.441,0.674,0.612,0.601,0.278,0.247,south,5.0,No
2014/10/13,03:50,0.633,0.442,0.673,0.612,0.600,0.279,0.246,south,5.1,No
2014/10/13,04:00,0.633,0.441,0.676,0.611,0.601,0.277,0.246,south,5.0,No
2014/10/13,04:10,0.634,0.441,0.677,0.612,0.601,0.277,0.246,south,5.6,No
2014/10/13,04:20,0.635,0.440,0.676,0.613,0.603,0.278,0.247,south-southwest,5.3,No
2014/10/13,04:30,0.635,0.440,0.677,0.613,0.602,0.278,0.246,south-southwest,4.6,No
2014/10/13,04:40,0.633,0.440,0.676,0.613,0.601,0.278,0.246,south,4.7,No
2014/10/13,04:50,0.634,0.441,0.677,0.611,0.599,0.279,0.247,south,5.4,No
2014/10/13,05:00,0.634,0.440,0.675,0.612,0.601,0.278,0.246,south,5.8,No
2014/10/13,05:10,0.634,0.441,0.677,0.612,0.602,0.277,0.247,south,5.6,No
2014/10/13,05:20,0.634,0.441,0.676,0.612,0.602,0.279,0.246,south,5.4,No
2014/10/13,05:30,0.633,0.440,0.675,0.615,0.601,0.279,0.246,south,4.8,No
2014/10/13,05:40,0.634,0.440,0.676,0.613,0.601,0.277,0.246,south,5.0,No
2014/10/13,05:50,0.634,0.441,0.676,0.613,0.600,0.278,0.246,south,5.3,No
2014/10/13,06:00,0.633,0.441,0.676,0.613,0.603,0.278,0.246,south,5.8,No
2014/10/13,06:10,0.634,0.441,0.676,0.612,0.602,0.278,0.246,south,7.0,No
2014/10/13,06:20,0.634,0.440,0.675,0.614,0.602,0.277,0.246,south,6.7,No
2014/10/13,06:30,0.634,0.441,0.678,0.613,0.601,0.278,0.246,south,6.4,No
2014/10/13,06:40,0.633,0.442,0.676,0.614,0.603,0.277,0.247,south,6.5,No
2014/10/13,06:50,0.631,0.441,0.676,0.613,0.603,0.278,0.246,south,6.3,No
2014/10/13,07:00,0.632,0.441,0.675,0.613,0.602,0.277,0.246,south,5.7,No
2014/10/13,07:10,0.634,0.441,0.676,0.613,0.604,0.277,0.245,south,6.4,No
2014/10/13,07:20,0.634,0.441,0.675,0.613,0.602,0.278,0.247,south,6.2,No
2014/10/13,07:30,0.634,0.441,0.679,0.613,0.604,0.279,0.246,south,6.1,No
2014/10/13,07:40,0.633,0.442,0.676,0.612,0.601,0.278,0.247,south,5.5,No
2014/10/13,07:50,0.635,0.441,0.677,0.614,0.601,0.278,0.245,south,5.2,No
2014/10/13,08:00,0.635,0.442,0.677,0.613,0.603,0.278,0.247,south,4.7,No
2014/10/13,08:10,0.634,0.442,0.676,0.613,0.603,0.278,0.246,south,4.5,No
2014/10/13,08:20,0.634,0.442,0.678,0.615,0.600,0.277,0.246,south,5.0,No
2014/10/13,08:30,0.636,0.442,0.676,0.615,0.602,0.277,0.245,south,5.3,No
2014/10/13,08:40,0.634,0.441,0.676,0.614,0.603,0.277,0.246,south,5.2,No
2014/10/13,08:50,0.633,0.441,0.677,0.613,0.601,0.278,0.245,south,5.3,No
2014/10/13,09:00,0.635,0.441,0.677,0.614,0.601,0.277,0.246,south,3.9,No
2014/10/13,09:10,0.634,0.443,0.679,0.612,0.602,0.279,0.245,south,3.7,No
2014/10/13,09:20,0.633,0.443,0.678,0.615,0.602,0.278,0.245,south-southwest,3.8,No
2014/10/13,09:30,0.635,0.442,0.678,0.615,0.602,0.278,0.247,south-southwest,4.5,No
2014/10/13,09:40,0.635,0.441,0.677,0.615,0.601,0.277,0.245,south-southwest,5.2,No
2014/10/13,09:50,0.636,0.441,0.677,0.616,0.601,0.277,0.246,south-southwest,5.2,No
2014/10/13,10:00,0.634,0.441,0.678,0.614,0.603,0.278,0.245,south-southwest,4.7,No
2014/10/13,10:10,0.636,0.443,0.675,0.614,0.604,0.276,0.247,south-southwest,5.0,Yes
2014/10/13,10:20,0.635,0.442,0.676,0.617,0.603,0.278,0.245,south-southwest,3.9,Yes
2014/10/13,10:30,0.633,0.443,0.677,0.616,0.604,0.276,0.247,south-southwest,4.1,No
2014/10/13,10:40,0.634,0.444,0.677,0.616,0.603,0.279,0.246,south-southwest,4.5,No
2014/10/13,10:50,0.633,0.443,0.678,0.615,0.604,0.277,0.246,south-southwest,3.9,Yes
2014/10/13,11:00,0.635,0.444,0.679,0.615,0.601,0.277,0.246,south-southwest,3.0,Yes
2014/10/13,11:10,0.634,0.442,0.676,0.617,0.602,0.278,0.244,south,2.2,Yes
2014/10/13,11:20,0.633,0.443,0.677,0.616,0.603,0.277,0.245,south,1.9,Yes
2014/10/13,11:30,0.635,0.443,0.677,0.615,0.603,0.278,0.247,south,1.4,Yes
2014/10/13,11:40,0.633,0.443,0.678,0.616,0.602,0.275,0.245,southeast,0.8,Yes
2014/10/13,11:50,0.636,0.443,0.676,0.614,0.605,0.278,0.247,east-southeast,1.3,Yes
2014/10/13,12:00,0.635,0.444,0.679,0.614,0.604,0.278,0.245,southeast,1.3,Yes
2014/10/13,12:10,0.637,0.444,0.678,0.615,0.605,0.278,0.246,south-southeast,1.2,No
2014/10/13,12:20,0.636,0.445,0.680,0.616,0.604,0.277,0.246,south-southeast,1.6,Yes
2014/10/13,12:30,0.637,0.442,0.678,0.614,0.603,0.277,0.246,south-southeast,1.7,Yes
2014/10/13,12:40,0.638,0.443,0.678,0.614,0.603,0.279,0.246,south-southeast,1.8,Yes
2014/10/13,12:50,0.637,0.443,0.678,0.614,0.604,0.277,0.246,south-southeast,1.6,Yes
2014/10/13,13:00,0.637,0.443,0.678,0.616,0.602,0.278,0.246,southeast,1.6,Yes
2014/10/13,13:10,0.635,0.444,0.676,0.613,0.602,0.277,0.245,southeast,1.4,Yes
2014/10/13,13:20,0.639,0.441,0.677,0.613,0.604,0.277,0.246,south-southeast,0.8,No
2014/10/13,13:30,0.635,0.443,0.677,0.614,0.603,0.277,0.246,-,CALM,No
2014/10/13,13:40,0.636,0.443,0.677,0.614,0.602,0.276,0.246,-,CALM,No
2014/10/13,13:50,0.637,0.444,0.677,0.614,0.603,0.277,0.248,-,CALM,No
2014/10/13,14:00,0.636,0.444,0.678,0.613,0.604,0.276,0.244,-,CALM,No
2014/10/13,14:10,0.636,0.442,0.676,0.614,0.604,0.277,0.247,north-northwest,1.2,No
2014/10/13,14:20,0.635,0.443,0.677,0.614,0.604,0.276,0.244,north-northwest,1.4,No
2014/10/13,14:30,0.635,0.442,0.677,0.615,0.604,0.277,0.246,north,1.3,Yes
2014/10/13,14:40,0.636,0.444,0.677,0.612,0.603,0.277,0.245,northeast,2.1,Yes
2014/10/13,14:50,0.635,0.444,0.678,0.613,0.605,0.277,0.245,north-northeast,2.2,Yes
2014/10/13,15:00,0.635,0.442,0.678,0.614,0.602,0.278,0.247,north,2.0,Yes
2014/10/13,15:10,0.634,0.444,0.678,0.613,0.602,0.278,0.243,north,2.6,Yes
2014/10/13,15:20,0.637,0.443,0.679,0.614,0.604,0.279,0.247,north,3.3,Yes
2014/10/13,15:30,0.635,0.445,0.677,0.613,0.603,0.278,0.247,north-northwest,3.3,Yes
2014/10/13,15:40,0.635,0.444,0.679,0.613,0.603,0.280,0.247,north,3.5,Yes
2014/10/13,15:50,0.633,0.442,0.676,0.614,0.601,0.279,0.246,north,2.9,Yes
2014/10/13,16:00,0.631,0.440,0.678,0.612,0.601,0.279,0.247,north-northwest,1.6,Yes
2014/10/13,16:10,0.632,0.439,0.675,0.611,0.600,0.278,0.244,north,3.2,Yes
2014/10/13,16:20,0.629,0.440,0.675,0.612,0.600,0.279,0.246,north,3.0,No
2014/10/13,16:30,0.632,0.441,0.674,0.611,0.599,0.278,0.245,north-northwest,3.2,Yes
2014/10/13,16:40,0.630,0.441,0.674,0.612,0.597,0.278,0.245,north-northwest,3.0,Yes
2014/10/13,16:50,0.630,0.440,0.674,0.613,0.598,0.277,0.245,north-northwest,2.8,Yes
2014/10/13,17:00,0.631,0.440,0.672,0.611,0.599,0.277,0.244,north-northwest,3.1,Yes
2014/10/13,17:10,0.629,0.437,0.670,0.610,0.596,0.277,0.244,north-northwest,2.5,Yes
2014/10/13,17:20,0.628,0.437,0.672,0.607,0.597,0.277,0.244,north,2.4,Yes
2014/10/13,17:30,0.627,0.438,0.672,0.609,0.595,0.277,0.243,north-northwest,2.9,No
2014/10/13,17:40,0.628,0.437,0.672,0.608,0.597,0.276,0.243,north,1.9,No
2014/10/13,17:50,0.629,0.438,0.671,0.606,0.596,0.276,0.243,north,1.4,No
2014/10/13,18:00,0.626,0.439,0.670,0.607,0.597,0.275,0.243,north-northeast,1.3,No
2014/10/13,18:10,0.628,0.436,0.672,0.606,0.596,0.277,0.242,northeast,2.9,Yes
2014/10/13,18:20,0.629,0.438,0.673,0.605,0.595,0.275,0.243,east-northeast,1.9,Yes
2014/10/13,18:30,0.628,0.435,0.669,0.608,0.597,0.276,0.242,east-northeast,1.6,Yes
2014/10/13,18:40,0.627,0.439,0.671,0.606,0.596,0.275,0.242,east-southeast,1.4,Yes
2014/10/13,18:50,0.627,0.436,0.667,0.604,0.596,0.275,0.241,southeast,2.2,Yes
2014/10/13,19:00,0.622,0.434,0.664,0.602,0.594,0.275,0.241,south-southeast,2.3,Yes
2014/10/13,19:10,0.622,0.434,0.661,0.598,0.594,0.276,0.240,east-southeast,3.6,Yes
2014/10/13,19:20,0.621,0.434,0.660,0.598,0.593,0.274,0.240,southeast,4.8,Yes
2014/10/13,19:30,0.622,0.435,0.659,0.599,0.593,0.275,0.242,east-southeast,5.9,Yes
2014/10/13,19:40,0.619,0.434,0.660,0.600,0.594,0.275,0.240,southeast,8.2,Yes
2014/10/13,19:50,0.620,0.434,0.659,0.598,0.594,0.272,0.240,southeast,9.3,Yes
2014/10/13,20:00,0.620,0.433,0.658,0.596,0.594,0.274,0.238,southeast,9.3,Yes
2014/10/13,20:10,0.620,0.432,0.659,0.598,0.593,0.273,0.239,southeast,11.0,No
2014/10/13,20:20,0.619,0.433,0.659,0.598,0.593,0.273,0.238,southeast,12.4,Yes
2014/10/13,20:30,0.618,0.434,0.657,0.595,0.593,0.272,0.239,southeast,11.7,Yes
2014/10/13,20:40,0.618,0.433,0.657,0.595,0.593,0.273,0.238,southeast,9.5,Yes
2014/10/13,20:50,0.618,0.432,0.656,0.598,0.593,0.272,0.240,southeast,10.6,Yes
2014/10/13,21:00,0.619,0.432,0.655,0.596,0.593,0.273,0.238,southeast,10.3,Yes
2014/10/13,21:10,0.619,0.433,0.657,0.597,0.592,0.271,0.239,southeast,9.9,Yes
2014/10/13,21:20,0.615,0.431,0.653,0.595,0.589,0.272,0.239,southeast,7.9,Yes
2014/10/13,21:30,0.614,0.432,0.649,0.592,0.588,0.271,0.238,east-southeast,6.7,Yes
2014/10/13,21:40,0.612,0.429,0.648,0.586,0.588,0.271,0.236,east,10.9,Yes
2014/10/13,21:50,0.607,0.427,0.644,0.584,0.586,0.269,0.237,south,9.4,Yes
2014/10/13,22:00,0.606,0.426,0.641,0.579,0.585,0.267,0.234,east-southeast,5.9,Yes
2014/10/13,22:10,0.601,0.424,0.637,0.575,0.587,0.267,0.236,east,5.4,Yes
2014/10/13,22:20,0.602,0.426,0.639,0.572,0.586,0.267,0.235,east-southeast,6.8,Yes
2014/10/13,22:30,0.601,0.424,0.638,0.572,0.586,0.266,0.235,east-southeast,7.5,Yes
2014/10/13,22:40,0.599,0.424,0.638,0.574,0.586,0.265,0.235,east,4.2,Yes
2014/10/13,22:50,0.596,0.422,0.636,0.571,0.584,0.267,0.235,east-southeast,9.5,Yes
2014/10/13,23:00,0.596,0.420,0.633,0.568,0.582,0.264,0.234,east-northeast,9.0,Yes
2014/10/13,23:10,0.590,0.417,0.629,0.565,0.583,0.263,0.232,east,5.9,Yes
2014/10/13,23:20,0.591,0.418,0.627,0.564,0.581,0.262,0.233,east,8.6,Yes
2014/10/13,23:30,0.594,0.421,0.635,0.573,0.586,0.267,0.235,east,8.4,Yes
2014/10/13,23:40,0.596,0.422,0.639,0.579,0.588,0.268,0.235,east,7.1,Yes
2014/10/13,23:50,0.598,0.424,0.637,0.578,0.587,0.267,0.236,east,4.8,Yes
